Time,TemperatureF,DewpointF,PressureIn,WindDirection,WindDirectionDegrees,WindSpeedMPH,WindSpeedGustMPH,Humidity,HourlyPrecipIn,Conditions,Clouds,dailyrainin,SolarRadiationWatts/m^2,SoftwareType,DateUTC
2013-01-31 00:00:00,21.1,14.1,29.94,SW,227,16.0,16.0,74,0.00,,,0.00,0,Wunderground v.1.15,2013-01-31 07:00:00,
2013-01-31 00:05:00,21.3,13.4,29.91,NW,311,17.0,31.0,71,0.00,,,0.00,0,Wunderground v.1.15,2013-01-31 07:05:00,
2013-01-31 00:15:00,21.8,13.2,29.91,NW,319,20.0,31.0,69,0.00,,,0.00,0,Wunderground v.1.15,2013-01-31 07:15:00,
2013-01-31 00:20:00,21.9,13.0,29.88,NW,312,20.0,20.0,68,0.00,,,0.00,0,Wunderground v.1.15,2013-01-31 07:20:00,
2013-01-31 00:30:00,22.2,13.2,29.88,NW,309,20.0,20.0,68,0.00,,,0.00,0,Wunderground v.1.15,2013-01-31 07:30:00,
2013-01-31 00:35:00,22.1,13.8,29.94,WNW,285,22.0,22.0,70,0.00,,,0.00,0,Wunderground v.1.15,2013-01-31 07:35:00,
2013-01-31 00:45:00,22.1,13.1,29.94,SSW,212,16.0,20.0,68,0.00,,,0.00,0,Wunderground v.1.15,2013-01-31 07:45:00,
2013-01-31 00:55:00,22.2,12.9,30.00,SW,220,12.0,13.0,67,0.00,,,0.00,0,Wunderground v.1.15,2013-01-31 07:55:00,
2013-01-31 01:05:00,22.2,13.2,30.02,WNW,282,7.0,10.0,68,0.00,,,0.00,0,Wunderground v.1.15,2013-01-31 08:05:00,
2013-01-31 01:15:00,22.4,14.1,30.02,South,179,4.0,7.0,70,0.00,,,0.00,0,Wunderground v.1.15,2013-01-31 08:15:00,
2013-01-31 01:25:00,22.2,14.2,30.00,South,182,3.0,4.0,71,0.00,,,0.00,0,Wunderground v.1.15,2013-01-31 08:25:00,
2013-01-31 01:35:00,22.2,14.5,30.00,East,86,4.0,9.0,72,0.00,,,0.00,0,Wunderground v.1.15,2013-01-31 08:35:00,
2013-01-31 01:45:00,22.1,14.8,30.00,North,354,3.0,8.0,73,0.00,,,0.00,0,Wunderground v.1.15,2013-01-31 08:45:00,
2013-01-31 01:55:00,21.9,14.9,29.99,WSW,250,6.0,11.0,74,0.00,,,0.00,0,Wunderground v.1.15,2013-01-31 08:55:00,
2013-01-31 02:00:00,21.8,14.8,29.99,North,350,7.0,7.0,74,0.00,,,0.00,0,Wunderground v.1.15,2013-01-31 09:00:00,
2013-01-31 02:05:00,21.6,14.9,29.98,ENE,75,5.0,7.0,75,0.00,,,0.00,0,Wunderground v.1.15,2013-01-31 09:05:00,
2013-01-31 02:15:00,21.4,15.0,29.98,SW,219,5.0,8.0,76,0.00,,,0.00,0,Wunderground v.1.15,2013-01-31 09:15:00,
2013-01-31 02:20:00,21.4,15.0,29.99,NNW,342,6.0,10.0,76,0.00,,,0.00,0,Wunderground v.1.15,2013-01-31 09:20:00,
2013-01-31 02:30:00,21.3,15.2,29.99,NNE,16,8.0,8.0,77,0.00,,,0.00,0,Wunderground v.1.15,2013-01-31 09:30:00,
2013-01-31 02:35:00,21.3,15.2,29.98,North,353,7.0,9.0,77,0.00,,,0.00,0,Wunderground v.1.15,2013-01-31 09:35:00,
2013-01-31 02:45:00,21.1,15.0,29.98,NW,306,8.0,14.0,77,0.00,,,0.00,0,Wunderground v.1.15,2013-01-31 09:45:00,
2013-01-31 02:55:00,21.1,14.7,29.97,NNW,342,9.0,9.0,76,0.00,,,0.00,0,Wunderground v.1.15,2013-01-31 09:55:00,
2013-01-31 03:05:00,21.1,15.0,29.92,West,272,17.0,21.0,77,0.00,,,0.00,0,Wunderground v.1.15,2013-01-31 10:05:00,
2013-01-31 03:15:00,21.1,15.0,29.92,North,354,18.0,25.0,77,0.00,,,0.00,0,Wunderground v.1.15,2013-01-31 10:15:00,
2013-01-31 03:20:00,21.1,15.0,29.89,NNW,337,18.0,20.0,77,0.00,,,0.00,0,Wunderground v.1.15,2013-01-31 10:20:00,
2013-01-31 03:30:00,21.1,14.7,29.89,North,356,18.0,18.0,76,0.00,,,0.00,0,Wunderground v.1.15,2013-01-31 10:30:00,
2013-01-31 03:40:00,21.4,14.7,29.92,NW,305,17.0,17.0,75,0.00,,,0.00,0,Wunderground v.1.15,2013-01-31 10:40:00,
2013-01-31 03:50:00,21.4,14.7,29.93,NW,325,17.0,17.0,75,0.00,,,0.00,0,Wunderground v.1.15,2013-01-31 10:50:00,
2013-01-31 03:55:00,21.6,15.2,29.93,NW,325,18.0,18.0,76,0.00,,,0.00,0,Wunderground v.1.15,2013-01-31 10:55:00,
2013-01-31 04:05:00,21.6,15.5,29.90,NW,308,16.0,24.0,77,0.00,,,0.00,0,Wunderground v.1.15,2013-01-31 11:05:00,
2013-01-31 04:15:00,21.4,15.6,29.90,SW,223,18.0,18.0,78,0.00,,,0.00,0,Wunderground v.1.15,2013-01-31 11:15:00,
2013-01-31 04:25:00,21.3,16.1,29.88,North,0,18.0,20.0,80,0.00,,,0.00,0,Wunderground v.1.15,2013-01-31 11:25:00,
2013-01-31 04:30:00,21.3,15.2,29.88,WSW,248,19.0,22.0,77,0.00,,,0.00,0,Wunderground v.1.15,2013-01-31 11:30:00,
2013-01-31 04:40:00,21.6,14.3,29.88,WNW,294,22.0,22.0,73,0.00,,,0.00,0,Wunderground v.1.15,2013-01-31 11:40:00,
2013-01-31 04:50:00,21.9,14.3,29.90,NW,315,21.0,21.0,72,0.00,,,0.00,0,Wunderground v.1.15,2013-01-31 11:50:00,
2013-01-31 04:55:00,22.1,14.4,29.90,WSW,239,20.0,25.0,72,0.00,,,0.00,0,Wunderground v.1.15,2013-01-31 11:55:00,
2013-01-31 05:05:00,22.2,14.2,29.92,WNW,284,20.0,33.0,71,0.00,,,0.00,0,Wunderground v.1.15,2013-01-31 12:05:00,
2013-01-31 05:15:00,22.2,13.6,29.92,NNW,336,20.0,22.0,69,0.00,,,0.00,0,Wunderground v.1.15,2013-01-31 12:15:00,
2013-01-31 05:25:00,22.4,13.1,29.91,NW,306,20.0,23.0,67,0.00,,,0.00,0,Wunderground v.1.15,2013-01-31 12:25:00,
2013-01-31 05:30:00,22.5,13.2,29.91,WNW,295,21.0,29.0,67,0.00,,,0.00,0,Wunderground v.1.15,2013-01-31 12:30:00,
2013-01-31 05:40:00,22.5,13.2,29.90,NW,325,21.0,21.0,67,0.00,,,0.00,0,Wunderground v.1.15,2013-01-31 12:40:00,
2013-01-31 05:50:00,22.7,13.0,29.91,WSW,240,22.0,22.0,66,0.00,,,0.00,0,Wunderground v.1.15,2013-01-31 12:50:00,
2013-01-31 06:00:00,22.9,12.5,29.91,NW,311,22.0,22.0,64,0.00,,,0.00,0,Wunderground v.1.15,2013-01-31 13:00:00,
2013-01-31 06:05:00,22.9,12.9,29.92,NNW,343,20.0,22.0,65,0.00,,,0.00,0,Wunderground v.1.15,2013-01-31 13:05:00,
2013-01-31 06:15:00,22.7,14.4,29.92,West,275,18.0,24.0,70,0.00,,,0.00,0,Wunderground v.1.15,2013-01-31 13:15:00,
2013-01-31 06:25:00,22.2,13.9,29.94,NW,312,20.0,29.0,70,0.00,,,0.00,0,Wunderground v.1.15,2013-01-31 13:25:00,
2013-01-31 06:35:00,22.2,13.2,29.95,West,280,18.0,19.0,68,0.00,,,0.00,0,Wunderground v.1.15,2013-01-31 13:35:00,
2013-01-31 06:45:00,22.2,14.2,29.95,NNW,347,20.0,20.0,71,0.00,,,0.00,0,Wunderground v.1.15,2013-01-31 13:45:00,
2013-01-31 06:50:00,22.1,14.1,29.96,NW,325,20.0,30.0,71,0.00,,,0.00,0,Wunderground v.1.15,2013-01-31 13:50:00,
2013-01-31 07:00:00,21.9,13.9,29.96,NNW,333,19.0,21.0,71,0.00,,,0.00,0,Wunderground v.1.15,2013-01-31 14:00:00,
2013-01-31 07:05:00,21.8,14.2,29.96,NW,326,19.0,32.0,72,0.00,,,0.00,0,Wunderground v.1.15,2013-01-31 14:05:00,
2013-01-31 07:15:00,21.6,14.6,29.96,SW,220,21.0,31.0,74,0.00,,,0.00,0,Wunderground v.1.15,2013-01-31 14:15:00,
2013-01-31 07:20:00,21.6,14.9,29.98,WSW,256,20.0,20.0,75,0.00,,,0.00,0,Wunderground v.1.15,2013-01-31 14:20:00,
2013-01-31 07:30:00,21.3,15.2,29.98,West,264,19.0,19.0,77,0.00,,,0.00,0,Wunderground v.1.15,2013-01-31 14:30:00,
2013-01-31 07:35:00,21.3,14.6,29.98,WNW,299,19.0,19.0,75,0.00,,,0.00,0,Wunderground v.1.15,2013-01-31 14:35:00,
2013-01-31 07:40:00,21.3,14.3,29.98,WNW,282,21.0,21.0,74,0.00,,,0.00,0,Wunderground v.1.15,2013-01-31 14:40:00,
2013-01-31 07:50:00,21.4,15.0,30.00,North,0,21.0,21.0,76,0.00,,,0.00,26,Wunderground v.1.15,2013-01-31 14:50:00,
2013-01-31 07:55:00,21.4,15.0,30.00,West,272,20.0,30.0,76,0.00,,,0.00,19,Wunderground v.1.15,2013-01-31 14:55:00,
2013-01-31 08:05:00,21.4,15.9,30.00,NW,304,18.0,26.0,79,0.00,,,0.00,23,Wunderground v.1.15,2013-01-31 15:05:00,
2013-01-31 08:15:00,21.3,15.8,30.00,West,280,21.0,34.0,79,0.00,,,0.00,40,Wunderground v.1.15,2013-01-31 15:15:00,
2013-01-31 08:25:00,21.3,15.5,30.02,NW,325,20.0,20.0,78,0.00,,,0.00,46,Wunderground v.1.15,2013-01-31 15:25:00,
2013-01-31 08:35:00,21.4,15.3,30.03,WSW,257,19.0,28.0,77,0.00,,,0.00,37,Wunderground v.1.15,2013-01-31 15:35:00,
2013-01-31 08:45:00,21.6,15.5,30.03,NW,308,20.0,24.0,77,0.00,,,0.00,58,Wunderground v.1.15,2013-01-31 15:45:00,
2013-01-31 08:55:00,21.9,14.9,30.03,NW,326,18.0,28.0,74,0.00,,,0.00,56,Wunderground v.1.15,2013-01-31 15:55:00,
2013-01-31 09:00:00,22.1,15.1,30.03,SSW,206,17.0,17.0,74,0.00,,,0.00,69,Wunderground v.1.15,2013-01-31 16:00:00,
2013-01-31 09:05:00,22.2,14.9,30.04,North,0,17.0,30.0,73,0.00,,,0.00,72,Wunderground v.1.15,2013-01-31 16:05:00,
2013-01-31 09:15:00,22.5,14.5,30.04,WSW,258,20.0,23.0,71,0.00,,,0.00,70,Wunderground v.1.15,2013-01-31 16:15:00,
2013-01-31 09:25:00,22.7,14.4,30.05,NNW,329,17.0,32.0,70,0.00,,,0.00,51,Wunderground v.1.15,2013-01-31 16:25:00,
2013-01-31 09:35:00,23.0,14.0,30.05,WNW,295,20.0,30.0,68,0.00,,,0.00,76,Wunderground v.1.15,2013-01-31 16:35:00,
2013-01-31 09:40:00,23.3,13.6,30.05,NW,311,20.0,20.0,66,0.00,,,0.00,102,Wunderground v.1.15,2013-01-31 16:40:00,
2013-01-31 09:50:00,23.6,13.5,30.03,NNW,328,17.0,17.0,65,0.00,,,0.00,79,Wunderground v.1.15,2013-01-31 16:50:00,
2013-01-31 10:00:00,24.2,13.4,30.03,WSW,240,19.0,23.0,63,0.00,,,0.00,70,Wunderground v.1.15,2013-01-31 17:00:00,
2013-01-31 10:05:00,24.2,13.4,30.03,North,359,21.0,23.0,63,0.00,,,0.00,100,Wunderground v.1.15,2013-01-31 17:05:00,
2013-01-31 10:15:00,24.4,13.2,30.03,WNW,288,21.0,21.0,62,0.00,,,0.00,109,Wunderground v.1.15,2013-01-31 17:15:00,
2013-01-31 10:20:00,24.5,13.0,30.03,West,264,19.0,19.0,61,0.00,,,0.00,76,Wunderground v.1.15,2013-01-31 17:20:00,
2013-01-31 10:30:00,24.7,13.1,30.03,NNW,344,20.0,20.0,61,0.00,,,0.00,123,Wunderground v.1.15,2013-01-31 17:30:00,
2013-01-31 10:35:00,24.8,12.9,30.05,NW,309,20.0,23.0,60,0.00,,,0.00,95,Wunderground v.1.15,2013-01-31 17:35:00,
2013-01-31 10:45:00,25.0,13.1,30.05,West,263,21.0,33.0,60,0.00,,,0.00,113,Wunderground v.1.15,2013-01-31 17:45:00,
2013-01-31 10:55:00,25.3,13.3,30.06,WNW,294,20.0,32.0,60,0.00,,,0.00,91,Wunderground v.1.15,2013-01-31 17:55:00,
2013-01-31 11:05:00,25.3,13.3,30.07,WNW,289,20.0,21.0,60,0.00,,,0.00,91,Wunderground v.1.15,2013-01-31 18:05:00,
2013-01-31 11:15:00,25.3,13.7,30.07,WNW,301,18.0,19.0,61,0.00,,,0.00,67,Wunderground v.1.15,2013-01-31 18:15:00,
2013-01-31 11:25:00,25.1,13.9,30.07,NNW,337,19.0,22.0,62,0.00,,,0.00,116,Wunderground v.1.15,2013-01-31 18:25:00,
2013-01-31 11:30:00,25.3,13.3,30.07,NW,311,20.0,28.0,60,0.00,,,0.00,95,Wunderground v.1.15,2013-01-31 18:30:00,
2013-01-31 11:40:00,25.6,12.9,30.07,NW,305,20.0,20.0,58,0.00,,,0.00,83,Wunderground v.1.15,2013-01-31 18:40:00,
2013-01-31 11:50:00,25.8,13.4,30.08,NNW,342,20.0,22.0,59,0.00,,,0.00,109,Wunderground v.1.15,2013-01-31 18:50:00,
2013-01-31 12:00:00,26.0,12.4,30.08,NNW,337,20.0,20.0,56,0.00,,,0.00,91,Wunderground v.1.15,2013-01-31 19:00:00,
2013-01-31 12:05:00,26.3,13.5,30.08,West,261,17.0,21.0,58,0.00,,,0.00,146,Wunderground v.1.15,2013-01-31 19:05:00,
2013-01-31 12:15:00,26.3,13.5,30.08,WNW,282,18.0,24.0,58,0.00,,,0.00,109,Wunderground v.1.15,2013-01-31 19:15:00,
2013-01-31 12:20:00,26.4,12.8,30.05,NNW,335,18.0,22.0,56,0.00,,,0.00,74,Wunderground v.1.15,2013-01-31 19:20:00,
2013-01-31 12:30:00,26.6,13.0,30.05,SW,215,21.0,21.0,56,0.00,,,0.00,106,Wunderground v.1.15,2013-01-31 19:30:00,
2013-01-31 12:35:00,26.6,12.6,30.05,SW,232,20.0,21.0,55,0.00,,,0.00,69,Wunderground v.1.15,2013-01-31 19:35:00,
2013-01-31 12:45:00,26.9,12.0,30.05,North,0,20.0,23.0,53,0.00,,,0.00,70,Wunderground v.1.15,2013-01-31 19:45:00,
2013-01-31 12:50:00,27.2,12.7,30.06,NW,323,21.0,21.0,54,0.00,,,0.00,120,Wunderground v.1.15,2013-01-31 19:50:00,
2013-01-31 13:00:00,27.2,12.3,30.06,NW,306,18.0,26.0,53,0.00,,,0.00,83,Wunderground v.1.15,2013-01-31 20:00:00,
2013-01-31 13:05:00,27.3,12.8,30.07,WSW,243,18.0,26.0,54,0.00,,,0.00,84,Wunderground v.1.15,2013-01-31 20:05:00,
2013-01-31 13:15:00,27.3,13.2,30.07,WSW,251,16.0,30.0,55,0.00,,,0.00,56,Wunderground v.1.15,2013-01-31 20:15:00,
2013-01-31 13:20:00,27.3,12.4,30.05,WSW,256,15.0,17.0,53,0.00,,,0.00,65,Wunderground v.1.15,2013-01-31 20:20:00,
2013-01-31 13:25:00,27.3,12.8,30.05,WNW,292,15.0,17.0,54,0.00,,,0.00,84,Wunderground v.1.15,2013-01-31 20:25:00,
2013-01-31 13:35:00,27.5,13.4,30.02,NNW,329,17.0,21.0,55,0.00,,,0.00,176,Wunderground v.1.15,2013-01-31 20:35:00,
2013-01-31 13:45:00,27.3,12.0,30.02,NW,309,21.0,21.0,52,0.00,,,0.00,123,Wunderground v.1.15,2013-01-31 20:45:00,
2013-01-31 13:50:00,27.5,12.2,30.01,WNW,285,20.0,31.0,52,0.00,,,0.00,79,Wunderground v.1.15,2013-01-31 20:50:00,
2013-01-31 14:00:00,27.5,12.6,30.01,West,281,20.0,20.0,53,0.00,,,0.00,79,Wunderground v.1.15,2013-01-31 21:00:00,
2013-01-31 14:05:00,27.5,13.4,30.01,North,6,19.0,20.0,55,0.00,,,0.00,72,Wunderground v.1.15,2013-01-31 21:05:00,
2013-01-31 14:15:00,27.5,12.2,30.01,WSW,250,18.0,28.0,52,0.00,,,0.00,63,Wunderground v.1.15,2013-01-31 21:15:00,
2013-01-31 14:20:00,27.6,12.7,30.04,North,11,18.0,18.0,53,0.00,,,0.00,62,Wunderground v.1.15,2013-01-31 21:20:00,
2013-01-31 14:30:00,27.5,14.2,30.04,WNW,299,19.0,23.0,57,0.00,,,0.00,86,Wunderground v.1.15,2013-01-31 21:30:00,
2013-01-31 14:35:00,27.5,12.6,30.03,WSW,246,18.0,24.0,53,0.00,,,0.00,60,Wunderground v.1.15,2013-01-31 21:35:00,
2013-01-31 14:45:00,27.6,12.2,30.03,WNW,302,19.0,30.0,52,0.00,,,0.00,121,Wunderground v.1.15,2013-01-31 21:45:00,
2013-01-31 14:55:00,27.8,12.9,30.03,NNE,30,19.0,20.0,53,0.00,,,0.00,53,Wunderground v.1.15,2013-01-31 21:55:00,
2013-01-31 15:00:00,27.8,12.9,30.03,NNW,330,18.0,18.0,53,0.00,,,0.00,42,Wunderground v.1.15,2013-01-31 22:00:00,
2013-01-31 15:05:00,27.6,12.2,30.03,NNW,330,19.0,32.0,52,0.00,,,0.00,40,Wunderground v.1.15,2013-01-31 22:05:00,
2013-01-31 15:15:00,27.5,11.7,30.03,SW,230,23.0,23.0,51,0.00,,,0.00,26,Wunderground v.1.15,2013-01-31 22:15:00,
2013-01-31 15:20:00,27.5,11.7,30.02,SSW,206,22.0,28.0,51,0.00,,,0.00,23,Wunderground v.1.15,2013-01-31 22:20:00,
2013-01-31 15:30:00,27.3,11.1,30.02,NW,309,22.0,22.0,50,0.00,,,0.00,23,Wunderground v.1.15,2013-01-31 22:30:00,
2013-01-31 15:40:00,27.3,12.0,30.04,NW,326,21.0,23.0,52,0.00,,,0.00,21,Wunderground v.1.15,2013-01-31 22:40:00,
2013-01-31 15:50:00,27.3,11.1,30.04,WNW,288,21.0,21.0,50,0.00,,,0.00,14,Wunderground v.1.15,2013-01-31 22:50:00,
2013-01-31 15:55:00,27.3,11.5,30.04,SW,227,21.0,21.0,51,0.00,,,0.00,12,Wunderground v.1.15,2013-01-31 22:55:00,
2013-01-31 16:05:00,27.2,11.9,30.04,NNW,346,20.0,20.0,52,0.00,,,0.00,5,Wunderground v.1.15,2013-01-31 23:05:00,
2013-01-31 16:15:00,27.0,11.7,30.04,West,271,20.0,20.0,52,0.00,,,0.00,0,Wunderground v.1.15,2013-01-31 23:15:00,
2013-01-31 16:20:00,26.9,11.6,30.06,West,272,20.0,20.0,52,0.00,,,0.00,0,Wunderground v.1.15,2013-01-31 23:20:00,
2013-01-31 16:25:00,26.9,11.6,30.06,WSW,240,19.0,20.0,52,0.00,,,0.00,0,Wunderground v.1.15,2013-01-31 23:25:00,
2013-01-31 16:35:00,26.7,11.4,30.06,WNW,301,18.0,32.0,52,0.00,,,0.00,0,Wunderground v.1.15,2013-01-31 23:35:00,
2013-01-31 16:45:00,26.7,11.4,30.06,WNW,298,17.0,18.0,52,0.00,,,0.00,0,Wunderground v.1.15,2013-01-31 23:45:00,
2013-01-31 16:50:00,26.7,11.4,30.05,West,278,17.0,17.0,52,0.00,,,0.00,0,Wunderground v.1.15,2013-01-31 23:50:00,
2013-01-31 17:00:00,26.6,11.3,30.05,WSW,240,18.0,18.0,52,0.00,,,0.00,0,Wunderground v.1.15,2013-02-01 00:00:00,
2013-01-31 17:05:00,26.6,10.9,30.06,NW,308,18.0,21.0,51,0.00,,,0.00,0,Wunderground v.1.15,2013-02-01 00:05:00,
2013-01-31 17:15:00,26.6,10.9,30.06,NNW,332,17.0,43.0,51,0.00,,,0.00,0,Wunderground v.1.15,2013-02-01 00:15:00,
2013-01-31 17:25:00,26.6,10.4,30.04,WNW,296,16.0,18.0,50,0.00,,,0.00,0,Wunderground v.1.15,2013-02-01 00:25:00,
2013-01-31 17:30:00,26.6,10.4,30.04,WNW,292,16.0,16.0,50,0.00,,,0.00,0,Wunderground v.1.15,2013-02-01 00:30:00,
2013-01-31 17:40:00,26.7,10.1,30.04,WNW,296,16.0,16.0,49,0.00,,,0.00,0,Wunderground v.1.15,2013-02-01 00:40:00,
2013-01-31 17:50:00,26.9,10.3,30.07,WNW,296,16.0,16.0,49,0.00,,,0.00,0,Wunderground v.1.15,2013-02-01 00:50:00,
2013-01-31 18:00:00,27.0,9.9,30.07,WNW,302,16.0,22.0,48,0.00,,,0.00,0,Wunderground v.1.15,2013-02-01 01:00:00,
2013-01-31 18:05:00,27.0,9.9,30.07,WSW,253,15.0,22.0,48,0.00,,,0.00,0,Wunderground v.1.15,2013-02-01 01:05:00,
2013-01-31 18:15:00,27.0,9.9,30.07,SSW,205,11.0,26.0,48,0.00,,,0.00,0,Wunderground v.1.15,2013-02-01 01:15:00,
2013-01-31 18:20:00,27.0,9.9,30.10,West,263,11.0,11.0,48,0.00,,,0.00,0,Wunderground v.1.15,2013-02-01 01:20:00,
2013-01-31 18:25:00,27.0,10.4,30.10,NNW,337,10.0,11.0,49,0.00,,,0.00,0,Wunderground v.1.15,2013-02-01 01:25:00,
2013-01-31 18:35:00,27.0,10.4,30.12,ESE,112,7.0,9.0,49,0.00,,,0.00,0,Wunderground v.1.15,2013-02-01 01:35:00,
2013-01-31 18:45:00,26.9,10.3,30.12,SSW,195,6.0,7.0,49,0.00,,,0.00,0,Wunderground v.1.15,2013-02-01 01:45:00,
2013-01-31 18:55:00,26.9,10.7,30.14,SSW,193,4.0,5.0,50,0.00,,,0.00,0,Wunderground v.1.15,2013-02-01 01:55:00,
2013-01-31 19:05:00,26.7,10.5,30.15,NNE,14,4.0,4.0,50,0.00,,,0.00,0,Wunderground v.1.15,2013-02-01 02:05:00,
2013-01-31 19:15:00,26.6,10.4,30.15,South,184,6.0,9.0,50,0.00,,,0.00,0,Wunderground v.1.15,2013-02-01 02:15:00,
2013-01-31 19:30:00,26.4,10.7,30.16,East,80,6.0,8.0,51,0.00,,,0.00,0,Wunderground v.1.15,2013-02-01 02:30:00,
2013-01-31 19:35:00,26.3,11.5,30.18,WSW,256,5.0,8.0,53,0.00,,,0.00,0,Wunderground v.1.15,2013-02-01 02:35:00,
2013-01-31 19:45:00,26.1,10.4,30.18,ESE,114,3.0,6.0,51,0.00,,,0.00,0,Wunderground v.1.15,2013-02-01 02:45:00,
2013-01-31 19:50:00,26.1,10.9,30.19,SE,144,4.0,4.0,52,0.00,,,0.00,0,Wunderground v.1.15,2013-02-01 02:50:00,
2013-01-31 20:00:00,26.1,10.4,30.19,SSE,158,7.0,7.0,51,0.00,,,0.00,0,Wunderground v.1.15,2013-02-01 03:00:00,
2013-01-31 20:05:00,26.1,10.9,30.20,SSW,212,5.0,7.0,52,0.00,,,0.00,0,Wunderground v.1.15,2013-02-01 03:05:00,
2013-01-31 20:15:00,26.3,11.5,30.20,SSE,158,4.0,6.0,53,0.00,,,0.00,0,Wunderground v.1.15,2013-02-01 03:15:00,
2013-01-31 20:20:00,26.3,11.5,30.19,SE,144,5.0,8.0,53,0.00,,,0.00,0,Wunderground v.1.15,2013-02-01 03:20:00,
2013-01-31 20:30:00,26.3,11.9,30.19,SE,136,5.0,5.0,54,0.00,,,0.00,0,Wunderground v.1.15,2013-02-01 03:30:00,
2013-01-31 20:35:00,26.3,12.3,30.19,SSW,212,4.0,9.0,55,0.00,,,0.00,0,Wunderground v.1.15,2013-02-01 03:35:00,
2013-01-31 20:45:00,26.3,11.9,30.19,NNW,336,6.0,6.0,54,0.00,,,0.00,0,Wunderground v.1.15,2013-02-01 03:45:00,
2013-01-31 20:50:00,26.3,11.9,30.20,SSW,212,4.0,17.0,54,0.00,,,0.00,0,Wunderground v.1.15,2013-02-01 03:50:00,
2013-01-31 21:00:00,26.3,12.3,30.20,SSW,212,6.0,6.0,55,0.00,,,0.00,0,Wunderground v.1.15,2013-02-01 04:00:00,
2013-01-31 21:05:00,26.3,12.3,30.18,West,274,5.0,6.0,55,0.00,,,0.00,0,Wunderground v.1.15,2013-02-01 04:05:00,
2013-01-31 21:15:00,26.1,11.7,30.18,SSW,195,5.0,15.0,54,0.00,,,0.00,0,Wunderground v.1.15,2013-02-01 04:15:00,
2013-01-31 21:20:00,26.1,11.7,30.18,NNW,335,5.0,7.0,54,0.00,,,0.00,0,Wunderground v.1.15,2013-02-01 04:20:00,
2013-01-31 21:30:00,26.1,12.1,30.18,ESE,112,5.0,5.0,55,0.00,,,0.00,0,Wunderground v.1.15,2013-02-01 04:30:00,
2013-01-31 21:40:00,26.1,12.5,30.17,WSW,237,4.0,4.0,56,0.00,,,0.00,0,Wunderground v.1.15,2013-02-01 04:40:00,
2013-01-31 21:50:00,26.1,11.3,30.19,SSE,158,4.0,4.0,53,0.00,,,0.00,0,Wunderground v.1.15,2013-02-01 04:50:00,
2013-01-31 22:05:00,26.1,12.1,30.18,SSW,213,2.0,6.0,55,0.00,,,0.00,0,Wunderground v.1.15,2013-02-01 05:05:00,
2013-01-31 22:15:00,26.1,11.7,30.18,South,175,2.0,7.0,54,0.00,,,0.00,0,Wunderground v.1.15,2013-02-01 05:15:00,
2013-01-31 22:20:00,26.1,11.7,30.19,SSE,157,3.0,7.0,54,0.00,,,0.00,0,Wunderground v.1.15,2013-02-01 05:20:00,
2013-01-31 22:25:00,26.3,11.9,30.19,ENE,64,5.0,7.0,54,0.00,,,0.00,0,Wunderground v.1.15,2013-02-01 05:25:00,
2013-01-31 22:35:00,26.3,12.3,30.17,WSW,254,3.0,4.0,55,0.00,,,0.00,0,Wunderground v.1.15,2013-02-01 05:35:00,
2013-01-31 22:45:00,26.3,11.9,30.17,SW,234,4.0,6.0,54,0.00,,,0.00,0,Wunderground v.1.15,2013-02-01 05:45:00,
2013-01-31 22:55:00,26.3,12.3,30.17,NE,34,5.0,5.0,55,0.00,,,0.00,0,Wunderground v.1.15,2013-02-01 05:55:00,